sat.trackr.live / text

‹ back to catalog

YAOGAN-4

NORAD 33446 · 2008-061A

PAYLOAD ACTIVE UNKNOWN

§ Identity

Operator
Country
PRC
Launch date
2008-12-01
Launch site
JSC
Launch vehicle
Mass (kg)
RCS (m²)
3.18

Purposes: earth_obs

External: N2YO · Heavens-Above · Gunter

§ Orbital elements

Epoch: 2026-05-25T02:15:54.875232Z

Period
97.09 min
Inclination
97.9304°
Eccentricity
0.0015120
Mean motion
14.83148443 rev/d
Perigee alt
608.8 km
Apogee alt
630.0 km
Semi-major
6,997.5 km
B*
9.8842e-5
RAAN
78.7768°
Arg perigee
141.1994°
Mean anomaly
219.0308°
Rev number
94,224

§ Raw data

YAOGAN-41 33446U 08061A   26145.09438513  .00000754  00000+0  98842-4 0  99962 33446  97.9304  78.7768 0015120 141.1994 219.0308 14.83148443942249

JSON: /api/v1/satellites/33446 · /tle

For live sub-satellite position, see the globe view (requires WebGL).

§ Visibility from observer

Set your observer location to see the next 7 days of passes ≥ 10°. The values pass through the URL so the page stays shareable.

No JS? Fill the form by hand. The geolocation button needs JavaScript.

§ Radio — SatNOGS DB

ModeDescriptionDownlinkUplink
FM S-Band Telemetry 2.217 GHz

1 transmitter · refreshed weekly from db.satnogs.org